Litchfield, MN

4:27 PM CST on February 07, 2016 (GMT -0600)
Litchfield Municipal

Weather History for KLJF - July, 2014

Change the Weather History Date:

Sunday, July 13, 2014

  Actual Average Record
Temperature  
Mean Temperature 68 °F -  
Max Temperature 77 °F 84 °F 99 °F (1976)
Min Temperature 60 °F 61 °F 45 °F (1990)
Cooling Degree Days 4    
Growing Degree Days 18 (Base 50)    
Moisture  
Dew Point 54 °F    
Average Humidity 63    
Maximum Humidity 94    
Minimum Humidity 31    
Precipitation  
Precipitation 0.00 in - - ()
Sea Level Pressure  
Sea Level Pressure 29.96 in    
Wind  
Wind Speed 6 mph (WNW)    
Max Wind Speed 15 mph    
Max Gust Speed 23 mph    
Visibility 10 miles    
Events      
Averages and records for this station are not official NWS values.
T = Trace of Precipitation, MM = Missing Value Source: NWS Daily Summary

Daily Weather History Graph

Daily Weather History Graph

Search for Another Location

Airport or City:

Trip Planner

Search our weather history database for the weather conditions in past years. The results will help you decide how hot, cold, wet, or windy it might be!

Date:

Astronomy

Jul. 13, 2014 Rise Set
Actual Time 5:43 AM CDT 9:03 PM CDT
Civil Twilight 5:07 AM CDT 9:39 PM CDT
Nautical Twilight 4:19 AM CDT 10:26 PM CDT
Astronomical Twilight 3:20 AM CDT 11:25 PM CDT
Moon 9:44 PM CDT (7/13) 7:21 AM CDT (7/13)
Length of Visible Light 16h 32m
Length of Day
15h 20m
Full, 98% of the Moon is Illuminated
Jul 13
Full
Jul 18
Last Quarter
Jul 26
New
Aug 3
First Quarter
Aug 10
Full

Hourly Weather History & Observations

Time (CDT) Temp. Dew Point Humidity Pressure Visibility Wind Dir Wind Speed Gust Speed Precip Events Conditions
12:13 AM 68.0 °F 66.2 °F 94% 29.94 in 10.0 mi SW 3.5 mph - N/A   Unknown
12:32 AM 68.0 °F 66.2 °F 94% 29.94 in 10.0 mi SW 4.6 mph - N/A   Clear
12:53 AM 68.0 °F 66.2 °F 94% 29.94 in 10.0 mi WSW 5.8 mph - N/A   Scattered Clouds
1:13 AM 69.8 °F 66.2 °F 88% 29.93 in 10.0 mi WSW 5.8 mph - N/A   Clear
1:32 AM 68.0 °F 66.2 °F 94% 29.93 in 10.0 mi West 4.6 mph - N/A   Clear
1:53 AM 68.0 °F 66.2 °F 94% 29.93 in 10.0 mi West 4.6 mph - N/A   Clear
2:13 AM 68.0 °F 66.2 °F 94% 29.93 in 10.0 mi West 5.8 mph - N/A   Scattered Clouds
2:32 AM 68.0 °F 66.2 °F 94% 29.92 in 10.0 mi West 3.5 mph - N/A   Clear
2:53 AM 68.0 °F 66.2 °F 94% 29.93 in 10.0 mi NW 6.9 mph - N/A   Unknown
3:13 AM 66.2 °F 64.4 °F 94% 29.93 in 10.0 mi NNW 6.9 mph - N/A   Unknown
3:32 AM 64.4 °F 62.6 °F 94% 29.94 in 10.0 mi NNW 9.2 mph - N/A   Clear
3:53 AM 64.4 °F 62.6 °F 94% 29.95 in 10.0 mi NW 3.5 mph - N/A   Clear
4:13 AM 62.6 °F 60.8 °F 94% 29.95 in 10.0 mi NNW 4.6 mph - N/A   Clear
4:32 AM 62.6 °F 60.8 °F 94% 29.96 in 10.0 mi NNW 3.5 mph - N/A   Clear
4:53 AM 62.6 °F 57.2 °F 82% 29.96 in 10.0 mi NW 4.6 mph - N/A   Clear
5:13 AM 62.6 °F 57.2 °F 82% 29.97 in 10.0 mi NNW 8.1 mph - N/A   Scattered Clouds
5:32 AM 60.8 °F 57.2 °F 88% 29.97 in 10.0 mi NW 3.5 mph - N/A   Clear
5:53 AM 60.8 °F 57.2 °F 88% 29.98 in 10.0 mi NW 3.5 mph - N/A   Clear
6:13 AM 60.8 °F 57.2 °F 88% 29.98 in 10.0 mi WNW 3.5 mph - N/A   Clear
6:32 AM 60.8 °F 57.2 °F 88% 29.99 in 10.0 mi WNW 5.8 mph - N/A   Clear
6:53 AM 62.6 °F 57.2 °F 82% 29.99 in 10.0 mi Calm Calm - N/A   Clear
7:13 AM 62.6 °F 59.0 °F 88% 30.00 in 10.0 mi WNW 4.6 mph - N/A   Unknown
7:32 AM 62.6 °F 57.2 °F 82% 30.01 in 10.0 mi WNW 5.8 mph - N/A   Clear
7:53 AM 62.6 °F 57.2 °F 82% 30.01 in 10.0 mi WNW 8.1 mph - N/A   Clear
8:13 AM 64.4 °F 59.0 °F 83% 30.02 in 10.0 mi NW 5.8 mph - N/A   Clear
8:32 AM 64.4 °F 57.2 °F 77% 30.02 in 10.0 mi WNW 5.8 mph - N/A   Clear
8:53 AM 64.4 °F 55.4 °F 73% 30.02 in 10.0 mi WNW 5.8 mph - N/A   Clear
9:13 AM 66.2 °F 55.4 °F 68% 30.01 in 10.0 mi NW 4.6 mph - N/A   Clear
9:33 AM 66.2 °F 51.8 °F 60% 30.01 in 10.0 mi WNW 4.6 mph - N/A   Clear
9:52 AM 68.0 °F 53.6 °F 60% 30.01 in 10.0 mi West 4.6 mph - N/A   Clear
10:13 AM 69.8 °F 51.8 °F 53% 30.01 in 10.0 mi West 6.9 mph - N/A   Clear
10:32 AM 69.8 °F 51.8 °F 53% 30.01 in 10.0 mi West 6.9 mph - N/A   Clear
10:52 AM 69.8 °F 53.6 °F 56% 30.00 in 10.0 mi West 5.8 mph - N/A   Clear
11:13 AM 71.6 °F 53.6 °F 53% 30.00 in 10.0 mi West 8.1 mph - N/A   Clear
11:32 AM 71.6 °F 53.6 °F 53% 29.99 in 10.0 mi West 8.1 mph - N/A   Clear
11:52 AM 71.6 °F 53.6 °F 53% 29.99 in 10.0 mi WNW 11.5 mph 17.3 mph N/A   Clear
12:13 PM 73.4 °F 51.8 °F 47% 29.99 in 10.0 mi WNW 13.8 mph - N/A   Clear
12:33 PM 71.6 °F 53.6 °F 53% 29.99 in 10.0 mi WNW 15.0 mph 19.6 mph N/A   Scattered Clouds
12:52 PM 73.4 °F 53.6 °F 50% 29.98 in 10.0 mi WNW 12.7 mph 19.6 mph N/A   Scattered Clouds
1:13 PM 73.4 °F 53.6 °F 50% 29.98 in 10.0 mi West 11.5 mph 17.3 mph N/A   Scattered Clouds
1:33 PM 73.4 °F 55.4 °F 53% 29.97 in 10.0 mi WNW 12.7 mph 17.3 mph N/A   Mostly Cloudy
1:52 PM 73.4 °F 55.4 °F 53% 29.96 in 10.0 mi West 10.4 mph 19.6 mph N/A   Mostly Cloudy
2:13 PM 75.2 °F 55.4 °F 50% 29.96 in 10.0 mi West 11.5 mph 18.4 mph N/A   Scattered Clouds
2:33 PM 75.2 °F 51.8 °F 44% 29.95 in 10.0 mi West 15.0 mph 19.6 mph N/A   Scattered Clouds
2:52 PM 77.0 °F 53.6 °F 44% 29.95 in 10.0 mi West 12.7 mph 23.0 mph N/A   Scattered Clouds
3:13 PM 75.2 °F 53.6 °F 47% 29.94 in 10.0 mi West 11.5 mph 16.1 mph N/A   Scattered Clouds
3:33 PM 75.2 °F 51.8 °F 44% 29.94 in 10.0 mi WNW 10.4 mph - N/A   Scattered Clouds
3:52 PM 77.0 °F 50.0 °F 39% 29.93 in 10.0 mi WNW 12.7 mph 17.3 mph N/A   Scattered Clouds
4:13 PM 77.0 °F 48.2 °F 36% 29.93 in 10.0 mi West 12.7 mph - N/A   Scattered Clouds
4:32 PM 77.0 °F 48.2 °F 36% 29.93 in 10.0 mi WNW 11.5 mph 17.3 mph N/A   Scattered Clouds
4:53 PM 75.2 °F 46.4 °F 36% 29.93 in 10.0 mi WNW 15.0 mph 20.7 mph N/A   Clear
5:13 PM 75.2 °F 46.4 °F 36% 29.93 in 10.0 mi West 11.5 mph 19.6 mph N/A   Clear
5:33 PM 75.2 °F 46.4 °F 36% 29.92 in 10.0 mi WNW 11.5 mph 20.7 mph N/A   Clear
5:52 PM 75.2 °F 42.8 °F 31% 29.93 in 10.0 mi WNW 12.7 mph 19.6 mph N/A   Clear
6:13 PM 75.2 °F 44.6 °F 34% 29.92 in 10.0 mi WNW 12.7 mph 19.6 mph N/A   Clear
6:32 PM 75.2 °F 44.6 °F 34% 29.92 in 10.0 mi WNW 10.4 mph - N/A   Clear
6:52 PM 75.2 °F 44.6 °F 34% 29.92 in 10.0 mi WNW 12.7 mph 18.4 mph N/A   Clear
7:13 PM 73.4 °F 44.6 °F 36% 29.92 in 10.0 mi WNW 10.4 mph 17.3 mph N/A   Clear
7:32 PM 73.4 °F 44.6 °F 36% 29.92 in 10.0 mi West 8.1 mph 16.1 mph N/A   Scattered Clouds
7:52 PM 73.4 °F 46.4 °F 38% 29.93 in 10.0 mi West 9.2 mph - N/A   Scattered Clouds
8:13 PM 71.6 °F 46.4 °F 41% 29.93 in 10.0 mi West 5.8 mph - N/A   Scattered Clouds
8:32 PM 69.8 °F 48.2 °F 46% 29.93 in 10.0 mi West 4.6 mph - N/A   Scattered Clouds
8:52 PM 68.0 °F 48.2 °F 49% 29.93 in 10.0 mi West 3.5 mph - N/A   Mostly Cloudy
9:13 PM 66.2 °F 48.2 °F 52% 29.93 in 10.0 mi West 3.5 mph - N/A   Scattered Clouds
9:32 PM 66.2 °F 48.2 °F 52% 29.93 in 10.0 mi Calm Calm - N/A   Scattered Clouds
9:52 PM 66.2 °F 50.0 °F 56% 29.93 in 10.0 mi Calm Calm - N/A   Mostly Cloudy
10:13 PM 66.2 °F 50.0 °F 56% 29.93 in 10.0 mi West 4.6 mph - N/A   Unknown
10:32 PM 66.2 °F 48.2 °F 52% 29.93 in 10.0 mi West 3.5 mph - N/A   Unknown
10:52 PM 64.4 °F 50.0 °F 59% 29.94 in 10.0 mi West 3.5 mph - N/A   Unknown
11:13 PM 64.4 °F 51.8 °F 64% 29.94 in 10.0 mi WNW 5.8 mph - N/A   Unknown
11:33 PM 64.4 °F 50.0 °F 59% 29.94 in 10.0 mi WNW 5.8 mph - N/A   Clear
11:52 PM 64.4 °F 50.0 °F 59% 29.94 in 10.0 mi WNW 5.8 mph - N/A   Clear